| time (UTC) | temp F | wind direction | speed MPH | gust MPH | rain 1hr in | rain 24hr in | rain mn in | humidity % | barometer mb |
| 20260902203541 | 90 | 30 | 4.0 | 9.0 | 0.00 | 0.00 | 0.00 | 55 | 1018.6 |
| 20260902203050 | 90 | 30 | 3.0 | 9.0 | 0.00 | 0.00 | 0.00 | 55 | 1018.7 |
| 20260902202544 | 91 | 32 | 4.0 | 8.0 | 0.00 | 0.00 | 0.00 | 55 | 1018.7 |
| 20260902202041 | 91 | 86 | 2.0 | 7.0 | 0.00 | 0.00 | 0.00 | 54 | 1018.6 |
| 20260902201549 | 90 | 273 | 1.0 | 6.0 | 0.00 | 0.00 | 0.00 | 57 | 1018.7 |
| 20260902201040 | 90 | 261 | 3.0 | 6.0 | 0.00 | 0.00 | 0.00 | 57 | 1018.8 |
| 20260902200541 | 90 | 263 | 1.0 | 7.0 | 0.00 | 0.00 | 0.00 | 55 | 1018.7 |
| 20260902200056 | 90 | 311 | 1.0 | 7.0 | 0.00 | 0.00 | 0.00 | 54 | 1018.8 |
| 20260902195543 | 90 | 360 | 3.0 | 7.0 | 0.00 | 0.00 | 0.00 | 54 | 1018.9 |
| 20260902195040 | 90 | 292 | 2.0 | 5.0 | 0.00 | 0.00 | 0.00 | 56 | 1019.1 |
| 20260902194554 | 90 | 47 | 1.0 | 8.0 | 0.00 | 0.00 | 0.00 | 54 | 1019.1 |
| 20260902194043 | 89 | 22 | 0.0 | 8.0 | 0.00 | 0.00 | 0.00 | 55 | 1019.1 |
| 20260902193541 | 89 | 352 | 3.0 | 8.0 | 0.00 | 0.00 | 0.00 | 55 | 1019.2 |
| 20260902193058 | 89 | 0 | 2.0 | 8.0 | 0.00 | 0.00 | 0.00 | 57 | 1019.2 |
| 20260902192540 | 89 | 22 | 3.0 | 8.0 | 0.00 | 0.00 | 0.00 | 59 | 1019.2 |
| 20260902192040 | 89 | 5 | 2.0 | 9.0 | 0.00 | 0.00 | 0.00 | 59 | 1019.2 |
| 20260902191606 | 89 | 38 | 3.0 | 9.0 | 0.00 | 0.00 | 0.00 | 58 | 1019.3 |
| 20260902191039 | 89 | 32 | 2.0 | 6.0 | 0.00 | 0.00 | 0.00 | 59 | 1019.4 |
| 20260902190539 | 89 | 360 | 2.0 | 5.0 | 0.00 | 0.00 | 0.00 | 56 | 1019.4 |
| 20260902190056 | 89 | 327 | 2.0 | 7.0 | 0.00 | 0.00 | 0.00 | 57 | 1019.5 |
| 20260902185542 | 89 | 263 | 2.0 | 7.0 | 0.00 | 0.00 | 0.00 | 56 | 1019.6 |
| 20260902185040 | 89 | 251 | 4.0 | 7.0 | 0.00 | 0.00 | 0.00 | 56 | 1019.5 |
| 20260902184600 | 88 | 261 | 4.0 | 8.0 | 0.00 | 0.00 | 0.00 | 56 | 1019.6 |
| 20260902184040 | 88 | 256 | 4.0 | 9.0 | 0.00 | 0.00 | 0.00 | 59 | 1019.6 |
| 20260902183539 | 88 | 261 | 6.0 | 10.0 | 0.00 | 0.00 | 0.00 | 57 | 1019.7 |
| 20260902183059 | 88 | 260 | 7.0 | 10.0 | 0.00 | 0.00 | 0.00 | 59 | 1019.6 |
| 20260902182538 | 89 | 256 | 6.0 | 8.0 | 0.00 | 0.00 | 0.00 | 57 | 1019.8 |
| 20260902182041 | 89 | 266 | 1.0 | 4.0 | 0.00 | 0.00 | 0.00 | 57 | 1019.8 |
| 20260902181601 | 88 | 0 | 0.0 | 4.0 | 0.00 | 0.00 | 0.00 | 57 | 1019.9 |
| 20260902181039 | 88 | 65 | 2.0 | 4.0 | 0.00 | 0.00 | 0.00 | 58 | 1019.8 |
| 20260902180538 | 88 | 336 | 1.0 | 6.0 | 0.00 | 0.00 | 0.00 | 59 | 1019.9 |
| 20260902180100 | 88 | 313 | 3.0 | 7.0 | 0.00 | 0.00 | 0.00 | 59 | 1019.9 |
| 20260902175539 | 88 | 278 | 3.0 | 7.0 | 0.00 | 0.00 | 0.00 | 60 | 1020.0 |
| 20260902175040 | 88 | 259 | 3.0 | 7.0 | 0.00 | 0.00 | 0.00 | 60 | 1020.1 |
| 20260902174601 | 88 | 232 | 2.0 | 8.0 | 0.00 | 0.00 | 0.00 | 60 | 1020.1 |
| 20260902174041 | 88 | 243 | 4.0 | 8.0 | 0.00 | 0.00 | 0.00 | 59 | 1020.2 |
| 20260902173538 | 88 | 251 | 3.0 | 5.0 | 0.00 | 0.00 | 0.00 | 57 | 1020.3 |
| 20260902173101 | 88 | 272 | 0.0 | 2.0 | 0.00 | 0.00 | 0.00 | 60 | 1020.4 |
| 20260902172543 | 88 | 124 | 0.0 | 2.0 | 0.00 | 0.00 | 0.00 | 60 | 1020.5 |
| 20260902172038 | 87 | 0 | 0.0 | 4.0 | 0.00 | 0.00 | 0.00 | 60 | 1020.7 |
| 20260902171603 | 87 | 14 | 0.0 | 6.0 | 0.00 | 0.00 | 0.00 | 62 | 1020.6 |
| 20260902171039 | 87 | 308 | 2.0 | 7.0 | 0.00 | 0.00 | 0.00 | 64 | 1020.7 |
| 20260902170538 | 86 | 257 | 2.0 | 7.0 | 0.00 | 0.00 | 0.00 | 63 | 1020.7 |
| 20260902170103 | 86 | 233 | 3.0 | 5.0 | 0.00 | 0.00 | 0.00 | 62 | 1020.8 |
| 20260902165538 | 86 | 231 | 2.0 | 4.0 | 0.00 | 0.00 | 0.00 | 63 | 1020.8 |
| 20260902165040 | 85 | 252 | 3.0 | 4.0 | 0.00 | 0.00 | 0.00 | 63 | 1020.8 |
| 20260902164607 | 85 | 252 | 2.0 | 3.0 | 0.00 | 0.00 | 0.00 | 63 | 1020.9 |
| 20260902164041 | 85 | 252 | 1.0 | 3.0 | 0.00 | 0.00 | 0.00 | 64 | 1021.0 |
| 20260902163539 | 84 | 0 | 1.0 | 3.0 | 0.00 | 0.00 | 0.00 | 65 | 1021.2 |
| 20260902163056 | 84 | 252 | 2.0 | 4.0 | 0.00 | 0.00 | 0.00 | 67 | 1021.2 |
| 20260902162538 | 83 | 252 | 2.0 | 4.0 | 0.00 | 0.00 | 0.00 | 68 | 1021.3 |
| 20260902162038 | 83 | 251 | 2.0 | 3.0 | 0.00 | 0.00 | 0.00 | 70 | 1021.5 |
| 20260902161554 | 83 | 259 | 2.0 | 3.0 | 0.00 | 0.00 | 0.00 | 72 | 1021.4 |
| 20260902161039 | 82 | 254 | 2.0 | 3.0 | 0.00 | 0.00 | 0.00 | 73 | 1021.4 |
| 20260902160542 | 82 | 261 | 2.0 | 3.0 | 0.00 | 0.00 | 0.00 | 75 | 1021.5 |
| 20260902160051 | 82 | 261 | 1.0 | 3.0 | 0.00 | 0.00 | 0.00 | 76 | 1021.5 |
| 20260902155538 | 81 | 244 | 2.0 | 4.0 | 0.00 | 0.00 | 0.00 | 77 | 1021.5 |
| 20260902155038 | 81 | 246 | 2.0 | 4.0 | 0.00 | 0.00 | 0.00 | 78 | 1021.5 |
| 20260902154608 | 81 | 248 | 3.0 | 5.0 | 0.00 | 0.00 | 0.00 | 78 | 1021.6 |
| 20260902154038 | 81 | 252 | 3.0 | 5.0 | 0.00 | 0.00 | 0.00 | 79 | 1021.6 |
| 20260902153538 | 80 | 246 | 3.0 | 5.0 | 0.00 | 0.00 | 0.00 | 79 | 1021.6 |
| 20260902153055 | 80 | 253 | 2.0 | 5.0 | 0.00 | 0.00 | 0.00 | 80 | 1021.6 |
| 20260902152538 | 80 | 266 | 2.0 | 5.0 | 0.00 | 0.00 | 0.00 | 80 | 1021.7 |
| 20260902152038 | 80 | 234 | 3.0 | 5.0 | 0.00 | 0.00 | 0.00 | 80 | 1021.6 |
| 20260902151555 | 80 | 246 | 2.0 | 4.0 | 0.00 | 0.00 | 0.00 | 80 | 1021.6 |
| 20260902151037 | 79 | 250 | 2.0 | 4.0 | 0.00 | 0.00 | 0.00 | 81 | 1021.6 |
| 20260902150538 | 79 | 233 | 1.0 | 3.0 | 0.00 | 0.00 | 0.00 | 81 | 1021.6 |
| 20260902145538 | 78 | 238 | 1.0 | 3.0 | 0.00 | 0.00 | 0.00 | 81 | 1021.6 |
| 20260902145038 | 78 | 235 | 1.0 | 3.0 | 0.00 | 0.00 | 0.00 | 83 | 1021.5 |
| 20260902144559 | 78 | 241 | 1.0 | 3.0 | 0.00 | 0.00 | 0.00 | 83 | 1021.5 |
| 20260902144039 | 77 | 243 | 1.0 | 3.0 | 0.00 | 0.00 | 0.00 | 83 | 1021.6 |
| 20260902143539 | 77 | 244 | 2.0 | 3.0 | 0.00 | 0.00 | 0.00 | 83 | 1021.7 |
| 20260902143058 | 77 | 248 | 2.0 | 3.0 | 0.00 | 0.00 | 0.00 | 83 | 1021.6 |
| 20260902142538 | 77 | 238 | 0.0 | 2.0 | 0.00 | 0.00 | 0.00 | 84 | 1021.6 |
| 20260902142038 | 76 | 238 | 0.0 | 3.0 | 0.00 | 0.00 | 0.00 | 84 | 1021.5 |
| 20260902141552 | 76 | 238 | 1.0 | 3.0 | 0.00 | 0.00 | 0.00 | 84 | 1021.7 |
| 20260902141038 | 76 | 251 | 1.0 | 3.0 | 0.00 | 0.00 | 0.00 | 84 | 1021.6 |
| 20260902140541 | 75 | 254 | 1.0 | 3.0 | 0.00 | 0.00 | 0.00 | 84 | 1021.5 |
| 20260902140059 | 75 | 214 | 1.0 | 3.0 | 0.00 | 0.00 | 0.00 | 84 | 1021.6 |
| 20260902135539 | 75 | 237 | 1.0 | 3.0 | 0.00 | 0.00 | 0.00 | 84 | 1021.5 |
| 20260902135037 | 75 | 0 | 0.0 | 3.0 | 0.00 | 0.00 | 0.00 | 84 | 1021.6 |
| 20260902134547 | 74 | 260 | 1.0 | 3.0 | 0.00 | 0.00 | 0.00 | 84 | 1021.6 |
| 20260902134038 | 74 | 240 | 1.0 | 3.0 | 0.00 | 0.00 | 0.00 | 84 | 1021.6 |
| 20260902133538 | 74 | 257 | 1.0 | 3.0 | 0.00 | 0.00 | 0.00 | 84 | 1021.6 |
| 20260902133056 | 74 | 303 | 1.0 | 3.0 | 0.00 | 0.00 | 0.00 | 84 | 1021.6 |
| 20260902132542 | 74 | 252 | 2.0 | 3.0 | 0.00 | 0.00 | 0.00 | 84 | 1021.6 |
| 20260902132038 | 74 | 256 | 2.0 | 3.0 | 0.00 | 0.00 | 0.00 | 84 | 1021.6 |
| 20260902131552 | 74 | 272 | 0.0 | 2.0 | 0.00 | 0.00 | 0.00 | 84 | 1021.8 |
| 20260902131042 | 74 | 0 | 0.0 | 2.0 | 0.00 | 0.00 | 0.00 | 83 | 1021.7 |
| 20260902130539 | 74 | 0 | 0.0 | 2.0 | 0.00 | 0.00 | 0.00 | 83 | 1021.7 |
| 20260902130048 | 73 | 48 | 0.0 | 2.0 | 0.00 | 0.00 | 0.00 | 82 | 1021.6 |
| 20260902125538 | 73 | 0 | 0.0 | 2.0 | 0.00 | 0.00 | 0.00 | 82 | 1021.6 |
| 20260902125038 | 72 | 0 | 0.0 | 2.0 | 0.00 | 0.00 | 0.00 | 82 | 1021.6 |
| 20260902124556 | 72 | 0 | 0.0 | 1.0 | 0.00 | 0.00 | 0.00 | 82 | 1021.5 |
| 20260902124041 | 71 | 0 | 0.0 | 1.0 | 0.00 | 0.00 | 0.00 | 82 | 1021.5 |
| 20260902123538 | 71 | 48 | 0.0 | 2.0 | 0.00 | 0.00 | 0.00 | 82 | 1021.5 |
| 20260902123058 | 71 | 0 | 0.0 | 2.0 | 0.00 | 0.00 | 0.00 | 82 | 1021.5 |
| 20260902122540 | 71 | 48 | 1.0 | 2.0 | 0.00 | 0.00 | 0.00 | 82 | 1021.5 |
| 20260902122040 | 71 | 65 | 1.0 | 3.0 | 0.00 | 0.00 | 0.00 | 82 | 1021.5 |
| 20260902121550 | 71 | 65 | 1.0 | 3.0 | 0.00 | 0.00 | 0.00 | 82 | 1021.4 |
| 20260902121042 | 70 | 44 | 1.0 | 3.0 | 0.00 | 0.00 | 0.00 | 82 | 1021.4 |
| 20260902120539 | 70 | 0 | 0.0 | 0.0 | 0.00 | 0.00 | 0.00 | 83 | 1021.2 |
| 20260902120100 | 70 | 0 | 0.0 | 0.0 | 0.00 | 0.00 | 0.00 | 83 | 1021.2 |
| 20260902115542 | 70 | 0 | 0.0 | 0.0 | 0.00 | 0.00 | 0.00 | 83 | 1021.0 |
| 20260902115041 | 70 | 0 | 0.0 | 2.0 | 0.00 | 0.00 | 0.00 | 83 | 1021.1 |
| 20260902114617 | 70 | 0 | 0.0 | 2.0 | 0.00 | 0.00 | 0.00 | 83 | 1021.1 |
| 20260902114038 | 70 | 0 | 0.0 | 2.0 | 0.00 | 0.00 | 0.00 | 83 | 1021.0 |
| 20260902113538 | 70 | 0 | 0.0 | 1.0 | 0.00 | 0.00 | 0.00 | 83 | 1021.0 |
| 20260902113105 | 70 | 0 | 0.0 | 2.0 | 0.00 | 0.00 | 0.00 | 83 | 1021.0 |
| 20260902112538 | 70 | 0 | 0.0 | 2.0 | 0.00 | 0.00 | 0.00 | 83 | 1020.9 |
| 20260902112038 | 70 | 70 | 0.0 | 1.0 | 0.00 | 0.00 | 0.00 | 83 | 1020.8 |
| 20260902111558 | 70 | 0 | 0.0 | 2.0 | 0.00 | 0.00 | 0.00 | 83 | 1020.8 |
| 20260902111038 | 70 | 0 | 0.0 | 2.0 | 0.00 | 0.00 | 0.00 | 83 | 1020.8 |
| 20260902110545 | 70 | 83 | 1.0 | 2.0 | 0.00 | 0.00 | 0.00 | 83 | 1020.7 |
| 20260902110050 | 70 | 83 | 1.0 | 2.0 | 0.00 | 0.00 | 0.00 | 83 | 1020.7 |
| 20260902105542 | 70 | 63 | 0.0 | 2.0 | 0.00 | 0.00 | 0.00 | 83 | 1020.6 |
| 20260902105038 | 70 | 0 | 0.0 | 1.0 | 0.00 | 0.00 | 0.00 | 83 | 1020.6 |
| 20260902104556 | 70 | 0 | 0.0 | 2.0 | 0.00 | 0.00 | 0.00 | 83 | 1020.5 |
| 20260902104039 | 70 | 0 | 0.0 | 2.0 | 0.00 | 0.00 | 0.00 | 83 | 1020.5 |
| 20260902103538 | 70 | 0 | 0.0 | 1.0 | 0.00 | 0.00 | 0.00 | 83 | 1020.4 |
| 20260902103107 | 70 | 63 | 0.0 | 1.0 | 0.00 | 0.00 | 0.00 | 83 | 1020.4 |
| 20260902102538 | 70 | 63 | 0.0 | 2.0 | 0.00 | 0.00 | 0.00 | 83 | 1020.4 |
| 20260902102042 | 70 | 63 | 0.0 | 2.0 | 0.00 | 0.00 | 0.00 | 83 | 1020.3 |
| 20260902101550 | 70 | 63 | 0.0 | 2.0 | 0.00 | 0.00 | 0.00 | 83 | 1020.4 |
| 20260902101038 | 70 | 63 | 0.0 | 2.0 | 0.00 | 0.00 | 0.00 | 83 | 1020.4 |
| 20260902100538 | 70 | 63 | 0.0 | 2.0 | 0.00 | 0.00 | 0.00 | 83 | 1020.3 |
| 20260902100125 | 70 | 0 | 0.0 | 0.0 | 0.00 | 0.00 | 0.00 | 83 | 1020.3 |
| 20260902095537 | 70 | 0 | 0.0 | 0.0 | 0.00 | 0.00 | 0.00 | 83 | 1020.3 |
| 20260902095037 | 70 | 0 | 0.0 | 1.0 | 0.00 | 0.00 | 0.00 | 83 | 1020.3 |
| 20260902094615 | 70 | 0 | 0.0 | 1.0 | 0.00 | 0.00 | 0.00 | 83 | 1020.2 |
| 20260902094038 | 71 | 0 | 0.0 | 1.0 | 0.00 | 0.00 | 0.00 | 83 | 1020.2 |
| 20260902093538 | 71 | 51 | 0.0 | 1.0 | 0.00 | 0.00 | 0.00 | 83 | 1020.1 |
| 20260902093111 | 71 | 0 | 0.0 | 1.0 | 0.00 | 0.00 | 0.00 | 83 | 1020.1 |
| 20260902092538 | 71 | 51 | 0.0 | 2.0 | 0.00 | 0.00 | 0.00 | 83 | 1020.2 |
| 20260902092040 | 71 | 51 | 0.0 | 2.0 | 0.00 | 0.00 | 0.00 | 83 | 1020.1 |
| 20260902091558 | 71 | 51 | 0.0 | 3.0 | 0.00 | 0.00 | 0.00 | 83 | 1020.1 |
| 20260902091038 | 71 | 51 | 1.0 | 3.0 | 0.00 | 0.00 | 0.00 | 83 | 1020.0 |
| 20260902090538 | 71 | 43 | 0.0 | 0.0 | 0.00 | 0.00 | 0.00 | 83 | 1019.9 |
| 20260902090058 | 71 | 0 | 0.0 | 0.0 | 0.00 | 0.00 | 0.00 | 83 | 1019.9 |
| 20260902085538 | 71 | 0 | 0.0 | 0.0 | 0.00 | 0.00 | 0.00 | 83 | 1019.9 |
| 20260902085038 | 71 | 0 | 0.0 | 0.0 | 0.00 | 0.00 | 0.00 | 83 | 1019.8 |
| 20260902084558 | 71 | 0 | 0.0 | 0.0 | 0.00 | 0.00 | 0.00 | 84 | 1019.8 |
| 20260902084042 | 71 | 0 | 0.0 | 0.0 | 0.00 | 0.00 | 0.00 | 84 | 1019.7 |
| 20260902083538 | 71 | 0 | 0.0 | 0.0 | 0.00 | 0.00 | 0.00 | 84 | 1019.7 |
| 20260902083057 | 71 | 0 | 0.0 | 1.0 | 0.00 | 0.00 | 0.00 | 84 | 1019.7 |
| 20260902082541 | 71 | 0 | 0.0 | 1.0 | 0.00 | 0.00 | 0.00 | 84 | 1019.8 |
| 20260902082041 | 71 | 0 | 0.0 | 2.0 | 0.00 | 0.00 | 0.00 | 84 | 1019.7 |
| 20260902081550 | 71 | 0 | 0.0 | 2.0 | 0.00 | 0.00 | 0.00 | 84 | 1019.6 |
| 20260902081040 | 71 | 0 | 1.0 | 2.0 | 0.00 | 0.00 | 0.00 | 84 | 1019.8 |
| 20260902080543 | 71 | 0 | 0.0 | 2.0 | 0.00 | 0.00 | 0.00 | 84 | 1019.8 |
| 20260902080049 | 71 | 55 | 1.0 | 2.0 | 0.00 | 0.00 | 0.00 | 84 | 1019.8 |
| 20260902075541 | 71 | 0 | 0.0 | 1.0 | 0.00 | 0.00 | 0.00 | 84 | 1019.7 |
| 20260902075039 | 71 | 0 | 0.0 | 2.0 | 0.00 | 0.00 | 0.00 | 84 | 1019.6 |
| 20260902074601 | 71 | 0 | 0.0 | 2.0 | 0.00 | 0.00 | 0.00 | 84 | 1019.8 |
| 20260902074042 | 72 | 55 | 0.0 | 2.0 | 0.00 | 0.00 | 0.00 | 84 | 1019.8 |
| 20260902073541 | 72 | 0 | 0.0 | 2.0 | 0.00 | 0.00 | 0.00 | 84 | 1019.9 |
| 20260902073109 | 72 | 0 | 0.0 | 2.0 | 0.00 | 0.00 | 0.00 | 84 | 1019.9 |
| 20260902072542 | 72 | 0 | 0.0 | 2.0 | 0.00 | 0.00 | 0.00 | 84 | 1019.9 |
| 20260902072040 | 72 | 55 | 0.0 | 2.0 | 0.00 | 0.00 | 0.00 | 84 | 1019.7 |
| 20260902071551 | 72 | 0 | 0.0 | 2.0 | 0.00 | 0.00 | 0.00 | 84 | 1019.6 |
| 20260902071040 | 72 | 55 | 0.0 | 1.0 | 0.00 | 0.00 | 0.00 | 84 | 1019.8 |
| 20260902070541 | 72 | 0 | 0.0 | 2.0 | 0.00 | 0.00 | 0.00 | 84 | 1019.8 |
| 20260902065541 | 72 | 55 | 0.0 | 2.0 | 0.00 | 0.00 | 0.00 | 84 | 1019.8 |
| 20260902065041 | 72 | 0 | 0.0 | 0.0 | 0.00 | 0.00 | 0.00 | 84 | 1019.8 |
| 20260902064548 | 72 | 0 | 0.0 | 0.0 | 0.00 | 0.00 | 0.00 | 84 | 1019.7 |
| 20260902064040 | 73 | 0 | 0.0 | 0.0 | 0.00 | 0.00 | 0.00 | 84 | 1019.6 |
| 20260902063540 | 73 | 0 | 0.0 | 0.0 | 0.00 | 0.00 | 0.00 | 84 | 1019.6 |
| 20260902063056 | 73 | 0 | 0.0 | 0.0 | 0.00 | 0.00 | 0.00 | 84 | 1019.7 |
| 20260902062544 | 73 | 0 | 0.0 | 0.0 | 0.00 | 0.00 | 0.00 | 84 | 1019.7 |
| 20260902062040 | 73 | 0 | 0.0 | 0.0 | 0.00 | 0.00 | 0.00 | 84 | 1019.6 |
| 20260902061610 | 73 | 0 | 0.0 | 2.0 | 0.00 | 0.00 | 0.00 | 84 | 1019.8 |
| 20260902061040 | 73 | 0 | 0.0 | 3.0 | 0.00 | 0.00 | 0.00 | 84 | 1019.7 |
| 20260902060541 | 73 | 80 | 1.0 | 3.0 | 0.00 | 0.00 | 0.00 | 84 | 1019.7 |
| 20260902060101 | 73 | 84 | 1.0 | 2.0 | 0.00 | 0.00 | 0.00 | 84 | 1019.7 |
| 20260902055540 | 73 | 39 | 1.0 | 2.0 | 0.00 | 0.00 | 0.00 | 84 | 1019.7 |
| 20260902055041 | 73 | 39 | 0.0 | 2.0 | 0.00 | 0.00 | 0.00 | 84 | 1019.8 |
| 20260902054559 | 73 | 0 | 1.0 | 2.0 | 0.00 | 0.00 | 0.00 | 84 | 1019.9 |
| 20260902054043 | 73 | 39 | 1.0 | 2.0 | 0.00 | 0.00 | 0.00 | 84 | 1019.9 |
| 20260902053540 | 74 | 0 | 0.0 | 2.0 | 0.00 | 0.00 | 0.00 | 84 | 1019.9 |
| 20260902053057 | 74 | 0 | 1.0 | 2.0 | 0.00 | 0.00 | 0.00 | 84 | 1019.9 |
| 20260902052540 | 74 | 39 | 0.0 | 3.0 | 0.00 | 0.00 | 0.00 | 84 | 1020.0 |
| 20260902052043 | 74 | 39 | 1.0 | 3.0 | 0.00 | 0.00 | 0.00 | 84 | 1020.1 |
| 20260902051553 | 74 | 39 | 2.0 | 3.0 | 0.00 | 0.00 | 0.00 | 84 | 1020.0 |
| 20260902051042 | 74 | 40 | 1.0 | 3.0 | 0.00 | 0.00 | 0.00 | 84 | 1019.9 |
| 20260902050542 | 74 | 42 | 1.0 | 3.0 | 0.00 | 0.00 | 0.00 | 84 | 1019.9 |
| 20260902045540 | 75 | 84 | 1.0 | 3.0 | 0.00 | 0.00 | 0.00 | 84 | 1019.8 |
| 20260902045039 | 75 | 61 | 0.0 | 2.0 | 0.00 | 0.00 | 0.00 | 84 | 1019.8 |
| 20260902044600 | 75 | 92 | 0.0 | 2.0 | 0.00 | 0.00 | 0.00 | 84 | 1019.9 |
| 20260902044041 | 75 | 96 | 0.0 | 2.0 | 0.00 | 0.00 | 0.00 | 84 | 1019.9 |
| 20260902043540 | 75 | 0 | 0.0 | 2.0 | 0.00 | 0.00 | 0.00 | 84 | 1019.8 |
| 20260902043056 | 75 | 44 | 0.0 | 2.0 | 0.00 | 0.00 | 0.00 | 84 | 1019.9 |
| 20260902042541 | 75 | 44 | 0.0 | 2.0 | 0.00 | 0.00 | 0.00 | 84 | 1020.0 |
| 20260902042040 | 75 | 44 | 0.0 | 2.0 | 0.00 | 0.00 | 0.00 | 84 | 1020.1 |
| 20260902041622 | 75 | 44 | 0.0 | 2.0 | 0.00 | 0.00 | 0.00 | 84 | 1020.1 |
| 20260902041040 | 75 | 0 | 0.0 | 3.0 | 0.00 | 0.00 | 0.00 | 84 | 1020.1 |
| 20260902040540 | 75 | 44 | 1.0 | 3.0 | 0.00 | 0.00 | 0.00 | 85 | 1020.1 |
| 20260902035539 | 75 | 44 | 0.0 | 2.0 | 0.00 | 0.00 | 0.00 | 85 | 1020.0 |
| 20260902035041 | 75 | 44 | 0.0 | 2.0 | 0.00 | 0.00 | 0.00 | 85 | 1019.9 |
| 20260902034558 | 75 | 44 | 0.0 | 2.0 | 0.00 | 0.00 | 0.00 | 85 | 1019.9 |
| 20260902034042 | 75 | 0 | 0.0 | 2.0 | 0.00 | 0.00 | 0.00 | 85 | 1019.9 |
| 20260902033539 | 75 | 0 | 0.0 | 2.0 | 0.00 | 0.00 | 0.00 | 85 | 1020.0 |
| 20260902033054 | 76 | 44 | 0.0 | 2.0 | 0.00 | 0.00 | 0.00 | 84 | 1020.0 |
| 20260902032541 | 76 | 44 | 1.0 | 2.0 | 0.00 | 0.00 | 0.00 | 85 | 1020.0 |
| 20260902032040 | 76 | 0 | 1.0 | 2.0 | 0.00 | 0.00 | 0.00 | 85 | 1020.0 |
| 20260902031614 | 76 | 44 | 0.0 | 2.0 | 0.00 | 0.00 | 0.00 | 85 | 1020.0 |
| 20260902031040 | 76 | 44 | 0.0 | 1.0 | 0.00 | 0.00 | 0.00 | 85 | 1020.2 |
| 20260902030539 | 76 | 0 | 0.0 | 2.0 | 0.00 | 0.00 | 0.00 | 85 | 1020.1 |
| 20260902030046 | 76 | 0 | 0.0 | 2.0 | 0.00 | 0.00 | 0.00 | 85 | 1020.3 |
| 20260902025540 | 76 | 44 | 0.0 | 2.0 | 0.00 | 0.00 | 0.00 | 84 | 1020.3 |
| 20260902025040 | 76 | 44 | 0.0 | 2.0 | 0.00 | 0.00 | 0.00 | 84 | 1020.3 |
| 20260902024551 | 77 | 44 | 0.0 | 2.0 | 0.00 | 0.00 | 0.00 | 85 | 1020.2 |
| 20260902024041 | 77 | 44 | 0.0 | 2.0 | 0.00 | 0.00 | 0.00 | 84 | 1020.1 |
| 20260902023540 | 77 | 44 | 0.0 | 2.0 | 0.00 | 0.00 | 0.00 | 84 | 1020.1 |
| 20260902023102 | 77 | 44 | 0.0 | 1.0 | 0.00 | 0.00 | 0.00 | 84 | 1020.1 |
| 20260902022540 | 77 | 44 | 0.0 | 1.0 | 0.00 | 0.00 | 0.00 | 84 | 1019.9 |
| 20260902022040 | 77 | 44 | 0.0 | 2.0 | 0.00 | 0.00 | 0.00 | 84 | 1019.9 |
| 20260902021557 | 77 | 0 | 0.0 | 2.0 | 0.00 | 0.00 | 0.00 | 84 | 1020.0 |
| 20260902021040 | 77 | 44 | 0.0 | 2.0 | 0.00 | 0.00 | 0.00 | 84 | 1019.9 |
| 20260902020540 | 78 | 0 | 0.0 | 2.0 | 0.00 | 0.00 | 0.00 | 84 | 1019.8 |
| 20260902020049 | 78 | 44 | 0.0 | 2.0 | 0.00 | 0.00 | 0.00 | 84 | 1019.8 |
| 20260902015542 | 78 | 44 | 0.0 | 2.0 | 0.00 | 0.00 | 0.00 | 84 | 1019.8 |
| 20260902015044 | 78 | 0 | 0.0 | 2.0 | 0.00 | 0.00 | 0.00 | 84 | 1019.7 |
| 20260902014554 | 78 | 0 | 0.0 | 4.0 | 0.00 | 0.00 | 0.00 | 84 | 1019.6 |
| 20260902014041 | 78 | 44 | 2.0 | 4.0 | 0.00 | 0.00 | 0.00 | 84 | 1019.6 |
| 20260902013540 | 78 | 21 | 0.0 | 2.0 | 0.00 | 0.00 | 0.00 | 84 | 1019.5 |
| 20260902013048 | 78 | 21 | 0.0 | 2.0 | 0.00 | 0.00 | 0.00 | 84 | 1019.6 |
| 20260902012539 | 78 | 0 | 0.0 | 2.0 | 0.00 | 0.00 | 0.00 | 84 | 1019.4 |
| 20260902012040 | 78 | 0 | 0.0 | 2.0 | 0.00 | 0.00 | 0.00 | 83 | 1019.4 |
| 20260902011548 | 78 | 0 | 1.0 | 3.0 | 0.00 | 0.00 | 0.00 | 83 | 1019.5 |
| 20260902011041 | 78 | 21 | 1.0 | 3.0 | 0.00 | 0.00 | 0.00 | 83 | 1019.4 |
| 20260902010540 | 79 | 21 | 0.0 | 2.0 | 0.00 | 0.00 | 0.00 | 83 | 1019.4 |
| 20260902010055 | 79 | 0 | 0.0 | 2.0 | 0.00 | 0.00 | 0.00 | 82 | 1019.3 |
| 20260902005539 | 79 | 0 | 0.0 | 2.0 | 0.00 | 0.00 | 0.00 | 82 | 1019.3 |
| 20260902005041 | 79 | 0 | 0.0 | 2.0 | 0.00 | 0.00 | 0.00 | 81 | 1019.2 |
| 20260902004558 | 79 | 0 | 1.0 | 2.0 | 0.00 | 0.00 | 0.00 | 81 | 1019.2 |
| 20260902004040 | 79 | 21 | 0.0 | 2.0 | 0.00 | 0.00 | 0.00 | 81 | 1019.1 |
| 20260902003540 | 79 | 21 | 1.0 | 2.0 | 0.00 | 0.00 | 0.00 | 80 | 1019.2 |
| 20260902003055 | 80 | 21 | 1.0 | 2.0 | 0.00 | 0.00 | 0.00 | 80 | 1019.2 |
| 20260902002543 | 80 | 21 | 0.0 | 2.0 | 0.00 | 0.00 | 0.00 | 80 | 1019.1 |
| 20260902002042 | 80 | 0 | 0.0 | 1.0 | 0.00 | 0.00 | 0.00 | 80 | 1019.2 |
| 20260902001559 | 80 | 0 | 0.0 | 2.0 | 0.00 | 0.00 | 0.00 | 80 | 1019.1 |
| 20260902001038 | 81 | 0 | 0.0 | 2.0 | 0.00 | 0.00 | 0.00 | 80 | 1019.2 |
| 20260902000539 | 81 | 21 | 0.0 | 3.0 | 0.00 | 0.00 | 0.00 | 80 | 1019.2 |
| 20260902000058 | 81 | 21 | 0.0 | 3.0 | 0.00 | 0.00 | 0.00 | 80 | 1019.1 |
| 20260901235538 | 81 | 21 | 2.0 | 3.0 | 0.00 | 0.00 | 0.00 | 79 | 1019.2 |
| 20260901235037 | 81 | 21 | 2.0 | 3.0 | 0.00 | 0.00 | 0.00 | 79 | 1019.2 |
| 20260901234604 | 81 | 360 | 2.0 | 3.0 | 0.00 | 0.00 | 0.00 | 78 | 1019.2 |
| 20260901234038 | 82 | 360 | 1.0 | 3.0 | 0.00 | 0.00 | 0.00 | 78 | 1019.2 |
| 20260901233538 | 82 | 360 | 2.0 | 3.0 | 0.00 | 0.00 | 0.00 | 77 | 1019.1 |
| 20260901233105 | 83 | 360 | 2.0 | 3.0 | 0.00 | 0.00 | 0.00 | 76 | 1019.2 |
| 20260901232540 | 83 | 360 | 2.0 | 3.0 | 0.00 | 0.00 | 0.00 | 76 | 1019.3 |
| 20260901232038 | 84 | 360 | 2.0 | 3.0 | 0.00 | 0.00 | 0.00 | 74 | 1019.2 |
| 20260901231600 | 84 | 360 | 1.0 | 3.0 | 0.00 | 0.00 | 0.00 | 73 | 1019.2 |
| 20260901231038 | 85 | 0 | 1.0 | 3.0 | 0.00 | 0.00 | 0.00 | 73 | 1019.4 |
| 20260901230538 | 85 | 360 | 1.0 | 3.0 | 0.00 | 0.00 | 0.00 | 70 | 1019.4 |
| 20260901230107 | 85 | 360 | 1.0 | 3.0 | 0.00 | 0.00 | 0.00 | 71 | 1019.3 |
| 20260901225538 | 86 | 360 | 1.0 | 4.0 | 0.00 | 0.00 | 0.00 | 68 | 1019.3 |
| 20260901225038 | 87 | 21 | 1.0 | 5.0 | 0.00 | 0.00 | 0.00 | 66 | 1019.1 |
| 20260901224556 | 86 | 348 | 1.0 | 5.0 | 0.00 | 0.00 | 0.00 | 65 | 1019.2 |
| 20260901224038 | 87 | 5 | 3.0 | 5.0 | 0.00 | 0.00 | 0.00 | 62 | 1019.2 |
| 20260901223538 | 87 | 348 | 1.0 | 4.0 | 0.00 | 0.00 | 0.00 | 64 | 1019.1 |
| 20260901223101 | 88 | 348 | 1.0 | 4.0 | 0.00 | 0.00 | 0.00 | 66 | 1019.1 |
| 20260901222538 | 88 | 324 | 2.0 | 4.0 | 0.00 | 0.00 | 0.00 | 60 | 1018.9 |
| 20260901222041 | 87 | 315 | 1.0 | 4.0 | 0.00 | 0.00 | 0.00 | 61 | 1019.1 |
| 20260901221549 | 87 | 313 | 3.0 | 6.0 | 0.00 | 0.00 | 0.00 | 61 | 1019.0 |
| 20260901221038 | 87 | 9 | 3.0 | 6.0 | 0.00 | 0.00 | 0.00 | 62 | 1019.1 |
| 20260901220537 | 87 | 343 | 2.0 | 8.0 | 0.00 | 0.00 | 0.00 | 61 | 1018.9 |
| 20260901220058 | 87 | 33 | 4.0 | 8.0 | 0.00 | 0.00 | 0.00 | 60 | 1019.0 |
| 20260901215538 | 88 | 10 | 3.0 | 8.0 | 0.00 | 0.00 | 0.00 | 60 | 1018.9 |
| 20260901215039 | 88 | 355 | 1.0 | 6.0 | 0.00 | 0.00 | 0.00 | 64 | 1018.9 |
| 20260901214605 | 87 | 303 | 3.0 | 6.0 | 0.00 | 0.00 | 0.00 | 60 | 1019.0 |
| 20260901214038 | 87 | 0 | 1.0 | 6.0 | 0.00 | 0.00 | 0.00 | 61 | 1018.9 |
| 20260901213540 | 87 | 355 | 4.0 | 6.0 | 0.00 | 0.00 | 0.00 | 60 | 1018.9 |
| 20260901213129 | 87 | 5 | 1.0 | 6.0 | 0.00 | 0.00 | 0.00 | 59 | 1018.8 |
| 20260901212538 | 87 | 308 | 4.0 | 9.0 | 0.00 | 0.00 | 0.00 | 60 | 1018.9 |
| 20260901212039 | 87 | 318 | 3.0 | 9.0 | 0.00 | 0.00 | 0.00 | 60 | 1018.9 |
| 20260901211559 | 87 | 360 | 3.0 | 5.0 | 0.00 | 0.00 | 0.00 | 61 | 1019.1 |
| 20260901211040 | 87 | 349 | 3.0 | 8.0 | 0.00 | 0.00 | 0.00 | 61 | 1019.1 |
| 20260901210540 | 88 | 28 | 1.0 | 8.0 | 0.00 | 0.00 | 0.00 | 60 | 1019.1 |
| 20260901210057 | 88 | 18 | 2.0 | 8.0 | 0.00 | 0.00 | 0.00 | 59 | 1019.2 |
| 20260901205544 | 87 | 288 | 2.0 | 9.0 | 0.00 | 0.00 | 0.00 | 59 | 1019.2 |
| 20260901205041 | 87 | 281 | 5.0 | 9.0 | 0.00 | 0.00 | 0.00 | 60 | 1019.2 |
| 20260901204556 | 88 | 5 | 4.0 | 8.0 | 0.00 | 0.00 | 0.00 | 59 | 1019.3 |
| 20260901204040 | 88 | 306 | 3.0 | 6.0 | 0.00 | 0.00 | 0.00 | 59 | 1019.2 |